Mercury, NV

5:01 AM PST on February 24, 2018 (GMT -0800)
Mercury

Weather History for KDRA - December, 2012

Change the Weather History Date:

Wednesday, December 12, 2012

  Actual Average Record
Temperature  
Mean Temperature 47 °F 43 °F  
Max Temperature 55 °F 55 °F 72 °F (1988)
Min Temperature 39 °F 32 °F 22 °F (1989)
Degree Days  
Heating Degree Days 18    
Cooling Degree Days 0    
Moisture  
Dew Point 20 °F    
Average Humidity 30    
Maximum Humidity 56    
Minimum Humidity 11    
Precipitation  
Precipitation 0.00 in 0.02 in 0.40 in (2014)
Month to date precipitation 0.19  
Year to date precipitation 5.48  
Sea Level Pressure  
Sea Level Pressure 29.72 in    
Wind  
Wind Speed 12 mph (SSW)    
Max Wind Speed 30 mph    
Max Gust Speed 39 mph    
Visibility 10 miles    
Events      
T = Trace of Precipitation, MM = Missing Value Source: NWS Daily Summary

Daily Weather History Graph

Daily Weather History Graph

Search for Another Location

Airport or City:

Trip Planner

Search our weather history database for the weather conditions in past years. The results will help you decide how hot, cold, wet, or windy it might be!

Date:

Astronomy

Dec. 12, 2012 Rise Set
Actual Time 6:47 AM PST 4:28 PM PST
Civil Twilight 6:18 AM PST 4:57 PM PST
Nautical Twilight 5:46 AM PST 5:29 PM PST
Astronomical Twilight 5:14 AM PST 6:01 PM PST
Moon 5:57 AM PST (12/12) 4:10 PM PST (12/12)
Length of Visible Light 10h 39m
Length of Day
9h 41m
Waning Crescent, 0% of the Moon is Illuminated
Dec 12
Waning Crescent
Dec 13
New
Dec 19
First Quarter
Dec 28
Full
Jan 4
Last Quarter

Hourly Weather History & Observations

Time (PST) Temp. Windchill Dew Point Humidity Pressure Visibility Wind Dir Wind Speed Gust Speed Precip Events Conditions
12:52 AM 39.0 °F - 19.0 °F 45% 29.78 in 10.0 mi Calm Calm - N/A   Clear
1:52 AM 39.0 °F 35.7 °F 19.9 °F 46% 29.76 in 10.0 mi North 4.6 mph - N/A   Clear
2:52 AM 37.0 °F - 19.0 °F 48% 29.75 in 10.0 mi Calm Calm - N/A   Clear
3:52 AM 42.1 °F 37.7 °F 19.9 °F 41% 29.73 in 10.0 mi East 6.9 mph 16.1 mph N/A   Clear
4:52 AM 55.0 °F - 19.0 °F 24% 29.70 in 10.0 mi SSW 21.9 mph 31.1 mph N/A   Clear
6:04 AM 53.6 °F - 19.4 °F 26% 29.78 in 10.0 mi South 21.9 mph 31.1 mph N/A   Clear
6:52 AM 53.1 °F - 21.0 °F 29% 29.74 in 10.0 mi SSW 25.3 mph 34.5 mph N/A   Clear
7:52 AM 55.0 °F - 21.0 °F 27% 29.74 in 10.0 mi South 21.9 mph 28.8 mph N/A   Clear
8:52 AM 57.0 °F - 19.0 °F 23% 29.75 in 10.0 mi SSW 17.3 mph 25.3 mph N/A   Clear
9:52 AM 59.0 °F - 19.0 °F 21% 29.75 in 10.0 mi SSW 16.1 mph 21.9 mph N/A   Clear
10:52 AM 61.0 °F - 19.0 °F 20% 29.73 in 10.0 mi SSW 19.6 mph 29.9 mph N/A   Clear
11:52 AM 57.9 °F - 19.0 °F 22% 29.72 in 10.0 mi SSW 29.9 mph 38.0 mph N/A   Clear
12:52 PM 57.9 °F - 19.0 °F 22% 29.70 in 10.0 mi SSW 26.5 mph 39.1 mph N/A   Clear
1:52 PM 57.9 °F - 18.0 °F 21% 29.68 in 10.0 mi SSW 17.3 mph 34.5 mph N/A   Clear
2:52 PM 57.9 °F - 19.0 °F 22% 29.68 in 10.0 mi SSW 26.5 mph 33.4 mph N/A   Clear
3:52 PM 55.9 °F - 17.1 °F 22% 29.68 in 10.0 mi SSW 24.2 mph 31.1 mph N/A   Clear
4:52 PM 54.0 °F - 17.1 °F 23% 29.67 in 10.0 mi SSW 20.7 mph 34.5 mph N/A   Clear
5:52 PM 54.0 °F - 18.0 °F 24% 29.69 in 10.0 mi South 24.2 mph 34.5 mph N/A   Clear
6:52 PM 53.1 °F - 19.0 °F 26% 29.70 in 10.0 mi SSW 17.3 mph 31.1 mph N/A   Clear
7:52 PM 52.0 °F - 21.0 °F 30% 29.69 in 10.0 mi SW 20.7 mph 29.9 mph N/A   Clear
8:52 PM 52.0 °F - 21.0 °F 30% 29.69 in 10.0 mi SSW 23.0 mph 32.2 mph N/A   Clear
9:52 PM 48.9 °F - 24.1 °F 38% 29.72 in 10.0 mi SW 10.4 mph - N/A   Clear
10:52 PM 48.0 °F - 28.9 °F 48% 29.74 in 10.0 mi Calm Calm - N/A   Clear
11:52 PM 46.0 °F 43.9 °F 30.9 °F 56% 29.74 in 10.0 mi ESE 4.6 mph - N/A   Partly Cloudy